www.pogodaiklimat.ru

Погода и климат >> Архив погоды >> Россия >> Курганская область >> Шатрово


ПОГОДА в Шатрово

  • Прогноз погоды в Шатрово
  • Монитор погоды в Шатрово

АРХИВ ПОГОДЫ в Шатрово

Время (UTC), дата Ветер
(напр.,м/с)
 
Видим.   Явления Облачность Т
(С)
Тd
(С)
f
(%)
Тe
(С)
Тes
(С)
Комфортность P
(гПа)
Po
(гПа)
Тmin
(С)
Tmax
(С)
R
(мм)
R24
(мм)
S
(см)
15 19.03 ЮВ 2 10 км 4/0
[Ci fib]
-3.4 -10.1 60 -7 -7 1031.6 1016.8 +1.7
18 19.03 ЮВ 1 10 км ясно -12.1 -14.3 84 -14 -14 1031.9 1016.7
21 19.03 штиль 0 10 км 3/0
[Ci fib]
-13.4 -15.2 86 -13 -13 1031.6 1016.3
00 20.03 ЮВ 1 10 км ясно -16.7 -19.1 82 -19 -19 1030.7 1015.2
03 20.03 штиль 0 20 км ясно -14.6 -16.8 83 -15 -13 1029.9 1014.5 -18.9 40
06 20.03 СВ 2 20 км ясно -5.9 -10.6 69 -10 -4 1028.6 1013.7
09 20.03 ЮВ 1 20 км ясно +2.4 -11.3 36 +2 +9 1026.5 1012.1
12 20.03 ЮВ 2 20 км 3/0
[Ci fib]
+2.9 -10.1 38 +1 +2 1025.0 1010.7
15 20.03 ЮВ 1 10 км 3/0
[Ci fib]
-4.1 -10.6 61 -6 -6 1024.4 1009.7 +4.5
18 20.03 Ю 1 10 км 6/0
[Ci fib]
-9.6 -12.7 78 -12 -12 1023.8 1008.8
21 20.03 штиль 0 10 км 10/0
[Ci fib]
-11.5 -14.0 82 -12 -12 1022.9 1007.8
00 21.03 штиль 0 10 км 10/0
[Ci fib]
-13.2 -14.9 87 -13 -13 1021.7 1006.6
03 21.03 Ю 1 4000 м дымка 10/0
[Ac trans Ci fib]
-11.6 -13.5 86 -14 -13 1020.7 1005.7 -14.1 40
06 21.03 СВ 1 20 км 8/0
[Ci fib]
-1.4 -8.5 58 -3 +3 1019.1 1004.7
09 21.03 Ю 3 20 км 6/0
[Ci fib]
+5.4 -9.8 32 +3 +8 1017.7 1003.6
12 21.03 ЮЗ 3 20 км 8/0
[Ci fib]
+5.1 -7.3 40 +2 +3 1016.9 1002.8
15 21.03 Ю 1 10 км 9/0
[Ac trans Ci fib]
+1.7 -6.7 54 +1 +1 1017.2 1002.9 +5.8
18 21.03 З 2 10 км 8/0
[Ac trans Ci fib]
-1.9 -6.4 71 -6 -6 1018.2 1003.8
21 21.03 З 1 10 км 8/0
[Ac trans Ci fib]
-4.2 -7.0 81 -6 -6 1018.4 1003.8
00 22.03 З 1 10 км 10/0
[Ac und]
-6.8 -8.4 88 -9 -9 1018.7 1003.9
03 22.03 штиль 0 20 км 9/0
[Ac trans]
-3.7 -6.3 82 -5 -4 1018.7 1004.1 -7.6 39
06 22.03 СВ 1 20 км 6/0
[Ac trans]
+3.1 -3.5 62 +2 +7 1018.5 1004.3
09 22.03 В 1 20 км 4/0
[Ac trans]
+4.2 -2.8 60 +3 +9 1017.9 1003.7
12 22.03 В 3 20 км 3/0
[Ci fib]
+3.9 -3.0 61 +1 +2 1016.7 1002.6
15 22.03 В 2 10 км 9/0
[Ci fib]
+0.5 -3.4 75 -3 -3 1017.3 1003.0 +6.0
18 22.03 штиль 0 10 км 8/0
[Ci fib]
-3.8 -5.6 87 -5 -5 1018.1 1003.5
21 22.03 В 1 10 км 8/0
[Ci fib]
-5.6 -7.0 90 -8 -8 1018.3 1003.6
00 23.03 штиль 0 10 км 6/0
[Ci fib]
-8.6 -10.1 89 -9 -9 1018.7 1003.8
03 23.03 В 1 20 км ясно -7.7 -9.2 89 -10 -9 1018.9 1004.1 -10.1 39
06 23.03 ЮЗ 2 20 км 8/0
[Ac trans Ci fib]
+3.1 -6.8 48 +1 +5 1018.8 1004.6
09 23.03 Ю 2 20 км 4/0
[Ac trans Ci fib]
+6.6 -9.0 32 +5 +11 1018.3 1004.2
12 23.03 З 3 20 км 8/0
[Ci fib]
+6.5 -3.2 50 +4 +5 1018.5 1004.5
15 23.03 З 1 10 км 8/0
[Ci fib]
+1.6 -4.4 64 0 0 1019.8 1005.5 +7.3
18 23.03 штиль 0 10 км ясно -0.8 -4.6 75 -2 -2 1021.2 1006.7
21 23.03 З 1 10 км ясно -5.4 -7.0 88 -8 -8 1022.2 1007.5
00 24.03 З 1 10 км ясно -7.3 -8.7 90 -10 -10 1022.8 1007.9
03 24.03 З 1 500 м переохл. туман ясно -8.0 -9.5 89 -10 -9 1023.5 1008.6 -8.8 39
06 24.03 В 2 20 км {туман} 3/0
[Ci fib]
+1.0 -2.6 77 -2 +4 1023.2 1008.8
09 24.03 В 2 20 км 10/0
[Ac trans Ci fib]
+3.8 -2.8 62 +1 +6 1022.6 1008.4
12 24.03 В 2 20 км 10/3 600 м
[Cb calv Ac und]
+3.8 -2.9 62 +1 +2 1021.4 1007.2
15 24.03 ЮВ 3 10 км 10/0
[Ac trans Ci fib]
+2.5 -3.6 64 -1 -1 1020.1 1005.8 +4.4
18 24.03 ЮВ 2 10 км 6/0
[Ci fib]
-0.6 -4.8 73 -4 -4 1019.9 1005.5
21 24.03 ЮВ 1 10 км 8/0
[Ci fib]
-4.0 -6.0 86 -6 -6 1020.2 1005.6
00 25.03 штиль 0 10 км 8/0
[Ci fib]
-6.0 -7.2 91 -7 -7 1020.6 1005.9
03 25.03 В 1 500 м туман ясно -4.5 -5.7 91 -7 -6 1020.6 1005.9 -7.9 37
06 25.03 В 3 20 км {туман} 6/0
[Ci fib]
+3.6 -3.3 61 0 +5 1019.8 1005.6
09 25.03 ЮВ 4 20 км 8/0
[Ci fib]
+7.5 -3.4 46 +5 +9 1018.6 1004.6
12 25.03 ЮВ 5 20 км 8/0
[Ac trans Ci fib]
+6.3 -4.4 46 +3 +3 1017.4 1003.4
15 25.03 ЮВ 4
{10}
10 км 10/4 600 м
[Cb calv Ac und]
+3.6 -3.6 59 -0 -0 1015.1 1001.0 +7.7
18 25.03 ЮВ 6-10
{11}
10 км 10/6 600 м
[Cb calv Ac und]
+1.5 -2.1 77 -5 -5 1012.5 998.2
21 25.03 ЮВ 5
{11}
10 км 10/10 600 м
[Cb calv]
+1.5 -1.9 78 -4 -4 1010.7 996.5
00 26.03 ЮВ 4
{10}
10 км слаб. ливневой снег 10/10 600 м
[Cb calv]
+0.2 -0.9 92 -5 -5 1008.7 994.5
03 26.03 Ю 3 20 км {ливн. осадки} 10/10 600 м
[Cb calv]
+0.6 -0.4 93 -4 -4 1008.8 994.6 +0.1 5 36
06 26.03 Ю 4 20 км {ливн. осадки} 9/9 600 м
[Cb calv]
+2.8 -2.6 68 -2 -1 1009.0 994.9
09 26.03 ЮЗ 5
{11}
20 км 9/9 600 м
[Cb calv]
+3.9 -5.1 52 -1 -0 1010.1 996.1

 

Местоположение метеостанции Шатрово (Курганская область, Россия): широта 56.52 долгота 64.65 высота над уровнем моря 114 м.

В архиве по умолчанию представлена погода в Шатрово за последнюю неделю. Архивные данные за месяц целиком и за предыдущие месяцы, начиная с января 2011 года, Вы можете получить, выбрав интересующий диапазон дат из раскрывающегося списка и нажав кнопку "Ввод!".


*Определитесь, кто Вы:
робот инопланетянин человек

Внимание! Время в таблицах - всемирное. Для получения местного времени необходимо прибавить поправку, которая равна 5 ч.

Смотрите также архив погоды в соседних городах и на ближайших метеорологических станциях:

Погода в Исетском (Тюменская область, Россия) (42 км)
Погода в Бутке (Свердловская область, Россия) (58 км)
Погода в Тугулыме (Свердловская область, Россия) (61 км)
Погода в Шадринске (Курганская область, Россия) (79 км)
Погода в Тюмени (Тюменская область, Россия) (82 км)
Погода в Памятном (Курганская область, Россия) (85 км)
Погода в Ялуторовске (Тюменская область, Россия) (106 км)
Погода в Далматово (Курганская область, Россия) (109 км)
Погода в Камышлове (Свердловская область, Россия) (123 км)
Погода в Кургане (Курганская область, Россия) (128 км)

Пояснения к столбцам:

Ветер - указаны скорость ветра в м/с - средняя за 10 мин, порывы в срок и между сроками (в фигурных скобках) и направление, откуда дует ветер: С - северный, СВ - северо-восточный, В - восточный, ЮВ - юго-восточный, Ю - южный, ЮЗ - юго-западный, З - западный, СЗ - северо-западный.
Видимость - горизонтальная дальность видимости в метрах или километрах. При видимости от 1 до 10 км при отсутствии осадков обычно наблюдается дымка, при ухудшении видимости до 1 км и менее - туман. В сухую погоду видимость может ухудшаться дымом, пылью или мглою.
Явления - указаны атмосферные явления, наблюдавшиеся в срок или в последний час перед сроком; фигурными скобками обозначены явления, наблюдавшиеся между сроками (за 1-3 часа до срока); квадратными скобками обозначены град или гололедные отложения с указанием их диаметра в мм.
Облачность - указаны через наклонную черту общая и нижняя облачность в баллах и высота нижней границы облаков в метрах; квадратными скобками обозначены формы облаков: Ci - перистые, Cs - перисто-слоистые, Cc - перисто-кучевые, Ac - высококучевые, As - высокослоистые, Sc - слоисто-кучевые, Ns - слоисто-дождевые, Cu - кучевые, Cb - кучево-дождевые. Подробнее классификацию облаков см. в Атласе облаков (PDF).
T - Температура воздуха - температура, измеренная на высоте 2 м над землей.
Td - Температура точки росы - температура, при понижении до которой содержащийся в воздухе водяной пар достигнет насыщения.
f - Относительная влажность воздуха - влажноcть воздуха, измеренная на высоте 2 м над землей.
Te - Эффективная температура - температура, которую ощущает одетый по сезону человек в тени. Характеристика душности погоды. При расчете учитывается влияние влажности воздуха и скорости ветра на теплоощущения человека.
Tes - Эффективная температура на солнце - температура, которую ощущает человек, с поправкой на солнечный нагрев. Характеристика знойности погоды. Зависит от высоты солнца над горизонтом, облачности и скорости ветра. Ночью, в пасмурную погоду, а также при ветре 12 м/с и более поправка равна нулю.
P - Атмосферное давление - приведенное к уровню моря атмосферное давление.
Po - Атмосферное давление - измеренное на уровне метеостанции атмосферное давление.
Tmin - Минимальная температура - минимум температуры воздуха на высоте 2 м над землей.
Tmax - Максимальная температура - максимум температуры воздуха на высоте 2 м над землей.
R - Количество осадков - Количество выпавших осадков за период времени, мм. При наведении курсора мыши на число - период времени, за который выпало указанное количество осадков.
R24 - Количество осадков - Количество выпавших осадков за 24 часа, мм.
S - Снежный покров - Высота снежного покрова, см. При наведении курсора мыши на число - состояние снежного покрова и степень покрытия местности в баллах.